Lordsburg, NM

11:58 AM MDT on October 17, 2017 (GMT -0600)
Lordsburg

Weather History for KLSB - September, 2013

Change the Weather History Date:

Tuesday, September 3, 2013

  Actual Average Record
Temperature  
Mean Temperature 81 °F -  
Max Temperature 93 °F 92 °F 96 °F (2014)
Min Temperature 69 °F 59 °F 60 °F (2014)
Cooling Degree Days 16    
Growing Degree Days 31 (Base 50)    
Moisture  
Dew Point 56 °F    
Average Humidity 47    
Maximum Humidity 73    
Minimum Humidity 24    
Precipitation  
Precipitation 0.08 in - - ()
Sea Level Pressure  
Sea Level Pressure 30.11 in    
Wind  
Wind Speed - (North)    
Max Wind Speed -    
Max Gust Speed -    
Visibility 10 miles    
Events Rain , Thunderstorm    
Averages and records for this station are not official NWS values.
T = Trace of Precipitation, MM = Missing Value Source: NWS Daily Summary

Daily Weather History Graph

Daily Weather History Graph

Search for Another Location

Airport or City:

Trip Planner

Search our weather history database for the weather conditions in past years. The results will help you decide how hot, cold, wet, or windy it might be!

Date:

Astronomy

Sep. 03, 2013 Rise Set
Actual Time 6:49 AM MDT 7:37 PM MDT
Civil Twilight 6:24 AM MDT 8:03 PM MDT
Nautical Twilight 5:53 AM MDT 8:33 PM MDT
Astronomical Twilight 5:22 AM MDT 9:04 PM MDT
Moon 5:08 AM MDT (9/3) 6:25 PM MDT (9/3)
Length of Visible Light 13h 39m
Length of Day
12h 47m
Waning Crescent, 3% of the Moon is Illuminated
Sep 3
Waning Crescent
Sep 5
New
Sep 12
First Quarter
Sep 19
Full
Sep 26
Last Quarter

Hourly Weather History & Observations

Time (MDT) Temp. Heat Index Dew Point Humidity Pressure Visibility Wind Dir Wind Speed Gust Speed Precip Events Conditions
12:15 AM 77.0 °F - 51.8 °F 41% 30.11 in 10.0 mi North - - N/A   Clear
12:35 AM 77.0 °F - 51.8 °F 41% 30.11 in 10.0 mi North - - N/A   Clear
12:55 AM 77.0 °F - 53.6 °F 44% 30.11 in 10.0 mi North - - N/A   Clear
1:15 AM 77.0 °F - 53.6 °F 44% 30.11 in 10.0 mi North - - N/A   Clear
1:35 AM 77.0 °F - 51.8 °F 41% 30.11 in 10.0 mi North - - N/A   Clear
1:55 AM 77.0 °F - 51.8 °F 41% 30.11 in 10.0 mi North - - N/A   Clear
2:15 AM 77.0 °F - 53.6 °F 44% 30.10 in 10.0 mi North - - N/A   Clear
2:35 AM 77.0 °F - 53.6 °F 44% 30.10 in 10.0 mi North - - N/A   Clear
2:55 AM 77.0 °F - 53.6 °F 44% 30.10 in 10.0 mi North - - N/A   Clear
3:15 AM 77.0 °F - 53.6 °F 44% 30.10 in 10.0 mi North - - N/A   Clear
3:35 AM 77.0 °F - 53.6 °F 44% 30.10 in 10.0 mi North - - N/A   Clear
3:55 AM 77.0 °F - 53.6 °F 44% 30.10 in 10.0 mi North - - N/A   Clear
4:15 AM 77.0 °F - 53.6 °F 44% 30.10 in 10.0 mi North - - N/A   Clear
4:35 AM 77.0 °F - 53.6 °F 44% 30.10 in 10.0 mi North - - N/A   Clear
4:55 AM 77.0 °F - 53.6 °F 44% 30.10 in 10.0 mi North - - N/A   Scattered Clouds
5:15 AM 77.0 °F - 53.6 °F 44% 30.10 in 10.0 mi North - - N/A   Scattered Clouds
5:35 AM 75.2 °F - 53.6 °F 47% 30.11 in 10.0 mi North - - N/A   Clear
5:55 AM 75.2 °F - 53.6 °F 47% 30.11 in 10.0 mi North - - N/A   Scattered Clouds
6:15 AM 75.2 °F - 53.6 °F 47% 30.12 in 10.0 mi North - - N/A   Scattered Clouds
6:35 AM 73.4 °F - 53.6 °F 50% 30.12 in 10.0 mi North - - N/A   Clear
6:55 AM 73.4 °F - 53.6 °F 50% 30.13 in 10.0 mi North - - N/A   Scattered Clouds
7:15 AM 73.4 °F - 55.4 °F 53% 30.13 in 10.0 mi North - - N/A   Overcast
7:35 AM 73.4 °F - 55.4 °F 53% 30.14 in 10.0 mi North - - N/A   Overcast
7:55 AM 73.4 °F - 55.4 °F 53% 30.15 in 10.0 mi North - - N/A   Mostly Cloudy
8:15 AM 77.0 °F - 55.4 °F 47% 30.16 in 10.0 mi North - - N/A   Mostly Cloudy
8:35 AM 77.0 °F - 55.4 °F 47% 30.16 in 10.0 mi North - - N/A   Overcast
8:55 AM 78.8 °F - 53.6 °F 42% 30.16 in 10.0 mi North - - N/A   Overcast
9:15 AM 82.4 °F 81.4 °F 53.6 °F 37% 30.17 in 10.0 mi North - - N/A   Overcast
9:35 AM 80.6 °F 80.3 °F 53.6 °F 39% 30.18 in 10.0 mi North - - N/A   Scattered Clouds
9:55 AM 80.6 °F 80.3 °F 53.6 °F 39% 30.18 in 10.0 mi North - - N/A   Clear
10:15 AM 84.2 °F 82.8 °F 53.6 °F 35% 30.18 in 10.0 mi North - - N/A   Clear
10:35 AM 86.0 °F 84.2 °F 53.6 °F 33% 30.18 in 10.0 mi North - - N/A   Clear
10:55 AM 86.0 °F 84.2 °F 53.6 °F 33% 30.18 in 10.0 mi North - - N/A   Clear
11:15 AM 86.0 °F 84.2 °F 53.6 °F 33% 30.18 in 10.0 mi North - - N/A   Clear
11:35 AM 87.8 °F 85.7 °F 53.6 °F 31% 30.18 in 10.0 mi North - - N/A   Clear
11:55 AM 87.8 °F 85.7 °F 53.6 °F 31% 30.18 in 10.0 mi North - - N/A   Clear
12:15 PM 87.8 °F 85.7 °F 53.6 °F 31% 30.17 in 10.0 mi North - - N/A   Scattered Clouds
12:35 PM 87.8 °F 85.7 °F 53.6 °F 31% 30.16 in 10.0 mi North - - N/A   Mostly Cloudy
12:55 PM 89.6 °F 87.3 °F 53.6 °F 29% 30.15 in 10.0 mi North - - N/A   Scattered Clouds
1:15 PM 89.6 °F - 51.8 °F 27% 30.14 in 7.0 mi North - - N/A   Scattered Clouds
1:35 PM 89.6 °F - 51.8 °F 27% 30.14 in 10.0 mi North - - N/A   Clear
1:55 PM 91.4 °F - 51.8 °F 26% 30.13 in 10.0 mi North - - N/A   Clear
2:15 PM 89.6 °F - 51.8 °F 27% 30.11 in 10.0 mi North - - N/A   Clear
2:35 PM 91.4 °F - 51.8 °F 26% 30.10 in 10.0 mi North - - N/A   Scattered Clouds
2:55 PM 91.4 °F - 51.8 °F 26% 30.09 in 10.0 mi North - - N/A   Clear
3:15 PM 93.2 °F - 51.8 °F 24% 30.09 in 10.0 mi North - - N/A   Scattered Clouds
3:35 PM 82.4 °F 81.7 °F 55.4 °F 39% 30.09 in 3.0 mi North - - N/A Thunderstorm Haze
3:55 PM 80.6 °F 80.5 °F 55.4 °F 42% 30.09 in 7.0 mi North - - N/A Rain Light Rain
4:15 PM 78.8 °F - 57.2 °F 47% 30.08 in 10.0 mi North - - N/A   Mostly Cloudy
4:35 PM 80.6 °F 81.5 °F 60.8 °F 51% 30.08 in 10.0 mi North - - N/A   Mostly Cloudy
4:55 PM 78.8 °F - 60.8 °F 54% 30.07 in 10.0 mi North - - N/A   Mostly Cloudy
5:15 PM 78.8 °F - 62.6 °F 57% 30.08 in 3.0 mi North - - 0.04 in Rain Light Rain
5:35 PM 73.4 °F - 62.6 °F 69% 30.07 in 10.0 mi North - - 0.08 in   Scattered Clouds
5:55 PM 77.0 °F - 62.6 °F 61% 30.06 in 10.0 mi North - - 0.08 in   Mostly Cloudy
6:15 PM 77.0 °F - 60.8 °F 57% 30.06 in 10.0 mi North - - N/A Thunderstorm Scattered Clouds
6:35 PM 77.0 °F - 62.6 °F 61% 30.06 in 10.0 mi North - - N/A   Scattered Clouds
6:55 PM 77.0 °F - 62.6 °F 61% 30.05 in 10.0 mi North - - N/A   Scattered Clouds
7:15 PM 77.0 °F - 62.6 °F 61% 30.04 in 10.0 mi North - - N/A   Scattered Clouds
7:35 PM 77.0 °F - 62.6 °F 61% 30.05 in 10.0 mi North - - N/A   Clear
7:55 PM 77.0 °F - 62.6 °F 61% 30.06 in 10.0 mi North - - N/A   Clear
8:15 PM 77.0 °F - 60.8 °F 57% 30.06 in 10.0 mi North - - N/A   Clear
8:35 PM 77.0 °F - 59.0 °F 54% 30.06 in 10.0 mi North - - N/A   Clear
8:55 PM 73.4 °F - 60.8 °F 65% 30.07 in 10.0 mi North - - N/A   Clear
9:15 PM 73.4 °F - 60.8 °F 65% 30.08 in 10.0 mi North - - N/A   Clear
9:35 PM 73.4 °F - 60.8 °F 65% 30.10 in 10.0 mi North - - N/A   Clear
9:55 PM 71.6 °F - 62.6 °F 73% 30.11 in 10.0 mi North - - N/A   Clear
10:15 PM 71.6 °F - 62.6 °F 73% 30.12 in 10.0 mi North - - N/A   Clear
10:35 PM 71.6 °F - 62.6 °F 73% 30.13 in 10.0 mi North - - N/A   Clear
10:55 PM 71.6 °F - 60.8 °F 69% 30.14 in 10.0 mi North - - N/A   Clear
11:15 PM 71.6 °F - 60.8 °F 69% 30.14 in 10.0 mi North - - N/A   Clear
11:35 PM 69.8 °F - 60.8 °F 73% 30.14 in 10.0 mi North - - N/A   Clear
11:55 PM 69.8 °F - 60.8 °F 73% 30.14 in 10.0 mi North - - N/A   Clear